Theta_e
314 322 325 324 328 327 328 328 329 330 330 333 335 338 339 338 341 344 340 336 335 337 327 326 325 323 322 321 319 318 319 319 318 317 317 316 315 315 314 314 314 314 315 316 317 317 318 318 317
316 322 323 325 327 329 328 329 328 330 335 336 337 338 341 341 340 339 340 337 336 333 327 327 325 324 322 320 319 318 318 318 318 317 317 316 315 315 315 315 315 315 316 317 318 319 320 321 321
327 325 323 325 328 328 329 330 329 332 334 335 337 338 339 341 340 337 337 336 337 330 327 327 326 324 322 320 319 318 317 317 317 318 318 317 317 317 316 316 316 316 316 317 319 320 321 321 322
325 321 323 327 326 328 328 329 330 333 333 336 337 339 337 339 340 338 334 335 337 338 327 327 326 325 323 320 319 318 318 317 317 318 318 318 318 318 318 318 318 318 317 318 319 320 320 321 321
324 323 324 325 326 327 328 328 331 332 336 337 338 339 337 337 340 338 335 335 337 337 336 327 325 325 323 321 319 318 318 318 317 317 317 318 318 318 318 319 319 319 319 319 320 320 320 321 321
325 323 325 325 325 327 327 327 327 329 334 336 337 338 339 338 338 338 335 335 336 337 340 332 325 324 324 323 320 319 318 317 317 317 317 317 317 318 319 319 320 321 321 321 321 321 321 321 321
327 327 324 325 327 327 327 326 327 329 333 335 336 339 339 339 339 337 334 334 335 337 340 336 326 325 324 323 322 321 319 319 317 317 317 316 317 318 319 320 321 321 321 322 322 322 322 322 322
327 328 326 325 324 326 327 326 325 327 332 333 335 338 339 338 338 337 335 335 335 337 339 341 329 326 324 324 322 321 320 319 318 317 316 316 316 317 318 319 320 321 321 322 322 323 323 323 323
327 330 330 327 326 324 323 324 325 326 329 332 334 336 336 339 339 337 335 336 336 337 338 341 343 335 327 324 324 323 321 319 318 317 316 315 315 316 316 318 319 320 321 321 322 323 324 324 324
329 330 330 329 327 327 325 324 324 326 329 332 334 334 334 338 337 336 335 336 336 336 337 339 342 343 343 340 336 329 326 323 321 319 318 316 315 316 318 319 319 320 321 321 321 322 324 325 332
329 330 330 329 328 327 326 325 325 325 328 331 333 333 334 335 337 336 337 336 336 336 337 338 342 343 343 343 340 338 334 332 328 324 321 320 319 321 330 331 328 322 320 321 321 321 322 333 338
327 329 329 329 329 328 327 325 325 325 325 329 333 334 334 334 334 335 336 336 337 338 338 339 343 342 335 339 340 341 341 343 342 341 338 330 328 329 330 333 334 334 333 326 334 335 336 338 339
324 325 326 328 328 329 329 328 328 326 325 325 330 332 333 333 334 334 334 334 334 335 334 335 337 341 333 327 328 331 338 341 342 343 343 341 338 335 334 334 335 335 337 335 335 334 336 338 338
320 322 323 325 326 327 329 329 328 329 327 326 325 327 330 331 332 333 334 334 333 333 334 335 338 341 327 326 325 325 326 338 343 342 344 343 341 339 339 337 337 334 335 336 335 336 336 337 337
318 319 321 323 323 325 327 329 330 329 328 329 327 328 329 330 332 332 333 333 333 333 333 336 338 338 333 326 325 325 325 341 342 343 342 343 341 342 340 340 339 336 334 334 334 334 336 336 336
317 320 319 320 323 324 326 328 328 327 329 329 329 330 330 331 331 331 331 332 332 333 333 335 334 332 334 328 325 324 329 339 343 343 343 342 343 341 341 341 339 338 337 335 334 335 335 335 335
313 316 320 320 321 323 324 328 328 326 328 330 330 330 330 330 330 330 331 331 332 334 335 333 333 330 332 327 325 325 324 334 342 343 342 343 344 345 343 342 341 339 338 336 336 336 335 334 332
313 314 316 319 321 321 323 325 327 327 327 328 329 330 330 329 329 330 330 331 332 333 332 330 326 326 325 324 324 324 329 338 342 342 343 344 345 344 342 343 343 341 340 338 337 336 335 333 332
314 313 314 317 320 321 322 323 325 327 327 328 328 329 330 330 330 329 330 331 331 331 331 330 327 323 323 323 325 333 339 342 344 343 344 346 345 344 342 344 344 343 341 340 337 335 334 333 339
313 313 314 314 316 320 321 322 325 325 326 326 327 329 329 329 330 330 330 330 330 330 330 330 329 331 324 323 324 334 339 342 345 345 346 346 345 343 343 343 345 342 342 339 337 335 337 338 337
314 313 313 314 315 318 321 322 323 324 325 325 325 327 328 328 329 329 329 329 329 328 328 329 330 327 323 322 328 335 339 345 347 347 348 346 346 345 341 341 345 341 342 342 339 339 339 338 337
313 313 312 312 315 318 320 322 323 324 325 326 325 326 326 327 328 328 328 327 327 327 328 328 329 327 321 321 323 334 342 346 346 346 347 347 346 344 342 345 344 343 342 340 340 339 338 336 336
312 313 312 312 313 317 319 322 323 323 325 325 326 325 326 326 326 326 326 327 326 326 325 326 326 327 321 324 321 337 341 344 346 346 347 346 347 346 345 345 344 343 339 342 340 338 337 336 335
311 311 312 312 313 316 318 321 323 324 324 325 325 325 325 325 325 325 325 324 324 324 324 325 326 325 324 320 320 327 342 344 347 347 349 348 346 346 345 346 342 342 341 340 338 337 335 335 334
311 312 313 313 314 316 318 321 323 324 324 324 325 324 324 324 323 323 323 323 323 324 325 324 324 328 337 339 327 336 342 347 347 349 348 347 345 346 344 344 343 342 339 339 337 334 333 332 334
311 313 315 317 315 316 318 321 322 322 323 321 322 323 323 322 322 323 324 325 325 326 327 326 327 339 346 344 344 347 350 349 350 349 348 347 345 344 342 343 341 338 339 338 335 334 334 333 331
312 312 314 316 315 318 318 319 320 321 321 322 323 321 323 325 327 329 331 332 334 332 328 328 331 342 347 348 349 350 350 349 348 347 343 343 340 342 341 339 338 339 337 335 335 334 333 333 332
314 311 314 313 314 316 317 318 321 321 322 322 323 322 322 323 325 329 335 338 338 333 330 335 339 346 348 350 350 350 349 348 347 345 342 340 339 339 338 337 338 337 336 335 332 333 332 331 332
313 313 313 314 314 316 318 320 321 321 321 322 322 322 322 322 323 331 338 339 339 334 337 342 346 348 349 348 348 348 347 346 344 341 341 341 339 338 336 336 336 336 334 333 330 332 332 331 331
313 314 315 317 315 315 316 317 322 322 323 322 323 321 321 321 321 326 339 337 341 340 343 346 347 347 347 347 347 346 344 342 342 341 340 338 337 336 335 336 335 333 332 332 332 332 332 332 332
Wind_Speed
10 6 5 9 8 8 17 18 12 11 13 7 2 9 9 14 8 2 18 16 22 23 22 20 18 16 16 17 18 18 18 17 16 15 14 13 12 10 8 7 6 5 4 3 1 1 0 1 3
9 6 10 14 9 14 13 17 12 10 11 10 7 9 10 5 7 13 20 18 21 22 21 21 20 19 18 18 18 18 18 17 16 14 13 12 11 11 10 8 8 6 5 3 2 0 1 2 2
8 10 14 8 15 16 15 15 13 15 3 8 11 8 9 6 1 4 17 23 21 20 21 20 20 20 19 19 19 18 18 17 16 15 13 12 11 11 10 10 9 7 6 5 3 2 2 2 3
7 10 13 12 19 20 22 9 3 12 10 14 13 8 7 8 4 10 19 21 21 19 20 19 20 19 19 19 18 18 18 18 17 16 15 14 13 12 11 11 10 8 8 7 5 4 4 3 4
11 14 13 16 21 21 15 21 8 8 12 12 14 13 11 12 5 12 23 21 20 20 18 18 21 19 19 18 19 19 18 18 18 17 17 16 16 14 14 13 11 10 9 8 6 5 5 5 5
12 17 14 15 22 19 18 17 14 15 18 14 11 13 16 14 12 16 22 21 18 19 18 18 21 21 19 19 18 18 18 18 19 18 19 19 18 17 16 16 14 12 10 9 8 7 7 7 7
17 12 16 20 21 16 15 17 16 17 20 19 18 15 17 12 15 19 22 20 18 19 19 19 19 21 21 20 20 19 18 19 20 20 20 20 20 20 19 18 16 15 13 11 10 9 8 8 7
22 13 22 19 17 24 17 14 17 20 19 17 5 5 14 12 17 21 24 20 19 19 18 17 18 21 23 22 21 21 21 21 22 23 23 22 22 22 22 21 20 18 17 14 12 11 11 10 9
20 16 19 21 21 19 21 20 23 21 20 14 11 17 2 11 17 22 24 21 19 18 18 17 16 17 19 21 22 22 23 25 26 26 26 25 26 27 27 26 24 21 20 17 15 14 13 12 11
23 17 27 21 17 13 15 20 26 24 12 20 14 8 5 10 18 22 24 22 20 20 19 17 17 17 16 16 17 20 24 28 30 31 32 31 30 29 28 28 27 25 24 21 19 18 16 15 12
31 27 24 21 24 20 19 21 23 24 18 26 19 16 10 10 18 22 21 22 21 20 20 19 20 19 18 15 16 17 18 22 26 29 32 32 30 29 25 22 26 29 29 26 24 23 21 16 11
26 36 34 32 33 22 18 22 25 30 25 25 23 19 22 11 15 17 20 23 18 13 16 14 17 23 19 16 15 16 16 17 20 21 25 28 31 29 27 25 22 23 22 27 21 17 17 16 15
32 30 37 36 30 31 26 26 25 30 31 29 26 19 18 17 17 18 17 15 13 10 13 14 16 24 14 11 14 16 18 19 20 20 24 26 25 27 27 26 23 22 19 21 20 21 19 18 17
34 34 38 35 34 35 27 30 27 33 31 33 32 31 26 27 25 21 20 19 17 16 15 12 14 21 14 12 16 17 21 21 22 22 24 29 26 27 25 26 24 25 23 19 21 19 20 20 18
33 30 30 27 37 33 31 25 32 38 34 33 36 33 31 31 29 27 24 20 19 18 15 14 14 12 15 14 16 21 24 22 21 22 26 30 30 26 28 24 23 24 24 25 23 22 21 20 19
23 23 27 34 31 32 29 35 39 39 36 36 37 34 35 34 33 29 26 22 20 18 16 15 16 14 14 18 19 23 24 23 20 20 23 28 31 29 28 24 24 23 23 22 22 22 22 21 19
21 24 30 32 32 31 28 38 35 47 38 36 39 39 38 36 36 32 27 22 18 16 16 17 17 18 18 20 25 26 26 25 20 20 21 24 27 25 24 23 21 24 21 21 21 21 21 19 19
23 28 30 33 29 30 32 37 31 41 37 39 37 35 36 37 38 36 29 23 22 21 21 23 23 24 29 31 30 28 25 22 19 20 20 23 25 23 22 20 20 21 19 19 20 20 19 19 17
24 28 35 31 27 31 30 35 37 31 35 36 36 39 33 29 29 32 26 20 22 23 25 29 27 25 25 26 25 20 18 18 18 19 20 21 21 20 21 18 19 20 18 19 22 21 20 17 17
26 27 32 31 34 28 28 35 33 32 29 35 40 31 33 31 31 29 25 25 26 27 28 27 24 22 21 20 20 19 16 16 17 17 19 20 19 19 20 20 19 19 16 18 20 18 15 15 18
25 25 28 31 28 28 33 30 32 31 33 39 43 43 37 34 34 34 30 27 26 27 26 24 24 22 20 18 17 19 17 15 17 18 18 18 18 18 20 20 17 18 16 14 16 15 17 13 12
27 23 24 27 25 22 32 21 31 31 30 26 34 41 43 42 31 30 33 33 31 31 26 25 26 26 24 23 21 21 17 17 16 19 15 16 18 21 20 19 19 17 14 15 14 15 14 16 14
25 23 25 27 26 28 33 22 21 25 29 29 29 36 37 32 37 39 37 33 31 30 29 30 29 30 29 25 24 21 21 16 15 16 20 16 19 18 18 21 21 17 14 15 13 12 15 13 14
17 25 28 27 22 23 31 28 24 22 25 28 30 37 36 33 32 32 32 32 30 28 29 28 27 29 29 23 26 27 21 18 18 20 17 16 20 20 20 17 16 15 13 13 12 15 15 12 12
20 20 15 18 18 20 24 28 23 14 15 10 16 22 24 21 19 22 25 22 21 20 21 25 26 24 20 22 24 24 21 20 23 23 18 18 16 16 19 17 15 13 13 12 13 13 12 11 9
15 18 11 18 15 20 26 28 27 28 18 10 3 7 6 10 16 17 16 17 15 16 19 21 23 20 19 19 19 19 22 21 20 19 19 16 15 15 17 16 14 12 11 12 11 7 7 8 9
25 10 21 26 21 14 15 32 28 35 27 23 16 10 8 4 8 10 11 12 14 15 16 21 22 19 17 18 19 21 22 22 19 22 20 18 17 16 15 14 12 12 11 9 9 7 9 9 9
21 17 11 11 18 19 16 22 23 15 27 16 15 14 8 6 7 5 6 8 10 13 15 17 19 19 19 21 21 21 21 21 21 20 19 19 17 14 14 13 12 11 10 9 9 7 8 9 9
16 15 12 17 12 10 14 13 18 24 21 19 14 15 5 2 5 3 5 7 7 11 15 18 20 21 22 22 22 22 21 20 20 20 18 17 15 15 13 12 12 11 10 10 10 10 8 8 8
14 17 1 8 14 15 15 15 25 16 12 24 15 11 5 6 9 8 8 3 7 14 17 20 21 22 22 22 21 21 21 21 20 18 16 14 13 12 12 12 11 11 10 10 9 7 8 7 7
Wind_Direction
218 210 262 229 240 232 243 229 238 219 229 245 349 248 265 240 195 101 141 145 151 165 174 184 187 185 182 179 174 173 173 172 170 169 169 174 177 181 184 193 203 198 206 201 174 154 244 298 283
210 230 238 256 242 245 231 238 195 226 192 167 197 244 258 177 85 107 149 143 154 173 177 185 189 194 193 190 183 183 186 182 181 179 177 182 187 191 189 194 206 207 207 213 222 274 296 288 294
177 211 254 226 233 247 260 217 197 198 209 211 229 212 214 255 28 91 157 147 156 175 183 188 197 199 198 198 191 191 197 193 192 190 190 192 199 199 200 202 203 208 209 215 220 227 250 276 290
188 216 250 259 248 230 260 299 313 188 202 221 223 187 217 205 182 175 160 155 163 169 185 190 202 205 203 203 200 199 202 203 200 202 203 204 209 210 211 211 208 207 214 218 219 225 237 257 280
224 250 241 239 243 261 262 268 202 258 246 213 205 228 208 187 192 145 157 163 168 172 184 195 208 212 213 211 210 207 209 211 212 210 213 215 216 216 218 219 217 214 216 220 223 229 237 245 254
230 237 243 241 246 241 249 256 258 239 250 236 229 233 216 176 183 175 163 165 170 174 180 203 207 213 219 220 221 219 216 220 221 221 221 222 223 222 224 224 223 223 223 227 229 231 236 238 243
242 240 251 262 267 262 235 241 238 236 239 232 228 225 227 181 200 179 171 167 174 179 183 211 207 214 220 225 229 231 230 229 230 231 230 228 230 230 229 230 231 231 232 233 233 234 240 249 256
237 250 255 250 262 273 299 273 253 238 247 245 250 239 234 193 169 180 179 178 179 184 191 196 217 220 223 229 232 235 241 241 240 239 237 235 237 238 235 234 234 234 236 235 235 239 245 251 258
233 252 252 247 238 252 275 290 274 244 243 252 231 235 355 139 173 177 183 186 193 193 197 199 209 227 229 234 242 241 245 244 243 243 241 238 238 240 237 235 236 237 237 236 238 242 247 250 256
226 238 243 253 256 271 232 254 255 257 225 250 205 238 221 183 183 188 191 196 200 202 205 208 205 208 221 215 234 255 251 252 248 246 244 237 236 239 241 238 235 236 236 237 240 242 244 248 249
230 239 249 254 258 263 257 263 265 264 223 222 222 188 192 173 192 201 199 209 211 217 213 218 233 217 213 217 221 243 259 255 255 250 247 246 236 235 233 228 240 235 234 235 237 238 240 238 237
246 244 246 253 266 267 252 268 269 269 255 244 220 213 200 196 194 205 210 213 223 219 222 223 222 254 241 222 237 238 237 238 242 251 255 243 244 233 224 229 227 243 229 237 225 234 235 233 234
241 247 251 252 254 261 258 248 255 257 257 253 242 221 229 218 222 218 227 237 240 223 223 236 237 246 230 233 249 257 249 241 236 234 249 255 229 230 229 224 222 229 229 234 227 228 236 235 237
253 252 253 251 252 253 252 249 251 249 252 253 248 246 234 237 231 226 224 230 238 240 236 239 234 228 232 259 276 277 269 248 241 232 231 253 247 226 224 228 227 223 230 232 232 232 232 235 239
262 265 264 256 243 246 244 257 248 248 249 248 246 243 242 239 234 234 233 239 241 244 241 236 217 228 256 272 279 286 281 258 240 238 231 238 252 224 223 224 229 229 226 229 230 234 236 234 241
280 271 249 244 245 243 228 248 249 247 240 243 249 245 239 235 235 235 237 244 245 244 237 232 224 229 251 274 287 279 271 260 241 233 233 235 238 238 223 220 228 228 226 227 229 230 233 237 242
247 250 246 249 236 239 238 239 247 250 249 239 238 245 243 239 238 238 240 243 240 236 227 232 236 246 254 269 279 274 273 256 240 234 226 230 227 226 212 220 223 225 224 224 226 227 231 236 241
254 245 247 256 255 228 233 243 242 248 248 249 257 237 237 235 239 236 235 233 238 240 238 238 242 258 266 270 267 261 263 252 239 230 223 219 225 216 220 214 217 223 221 221 222 226 228 232 246
269 270 274 265 255 249 255 233 244 235 241 253 238 241 238 236 241 239 235 229 237 240 237 245 264 267 260 255 256 247 248 239 232 225 217 210 216 210 215 208 222 215 216 215 222 221 226 230 240
272 274 268 267 269 276 261 253 245 239 231 238 249 241 238 239 238 238 238 240 243 245 247 255 256 253 251 250 247 238 245 236 229 218 212 205 205 207 209 196 217 217 208 212 215 214 222 228 236
253 264 269 270 268 259 263 262 254 245 237 230 241 246 244 238 241 242 244 246 247 248 250 252 250 247 246 250 249 248 232 213 213 210 205 202 198 204 208 188 202 213 183 214 210 215 214 228 229
266 263 270 270 269 257 246 251 243 244 244 230 235 241 241 243 248 248 249 251 251 252 248 246 243 247 248 250 246 233 225 218 215 207 201 193 191 210 189 183 192 199 190 209 213 218 218 227 238
268 271 261 262 254 259 253 250 246 241 239 236 238 240 235 237 242 246 248 249 251 250 248 243 238 238 246 237 247 227 223 218 210 197 201 187 187 189 185 183 187 192 185 212 213 218 225 231 247
286 282 262 251 246 243 243 248 239 230 239 236 223 227 232 235 239 245 249 251 250 251 247 238 230 236 240 231 239 221 217 199 198 187 178 175 186 177 182 181 196 194 192 219 215 224 230 235 243
256 260 261 245 230 240 251 238 245 221 234 284 244 233 230 235 240 243 240 243 241 244 243 233 224 225 213 214 223 209 194 192 186 186 173 173 176 177 178 183 187 198 198 215 223 232 238 239 224
235 294 243 249 222 235 232 234 228 248 250 135 283 280 174 210 236 241 246 245 240 240 237 224 212 199 197 198 200 188 185 184 181 169 177 173 177 180 192 180 193 197 214 216 225 233 227 234 231
265 213 241 265 270 295 287 225 229 226 236 245 238 196 169 223 249 254 254 250 244 239 221 210 196 188 185 177 172 173 170 173 173 175 165 168 168 177 175 182 193 202 205 216 222 201 222 222 231
263 271 270 286 264 259 268 270 212 191 203 196 189 186 157 224 269 275 281 255 241 224 203 186 182 179 172 166 167 164 166 164 164 166 158 161 166 168 173 184 195 196 198 198 207 208 227 222 220
245 257 242 251 267 292 264 253 238 199 196 199 194 122 130 320 319 330 335 288 222 189 178 169 167 165 165 164 162 162 162 164 159 153 156 161 161 170 176 188 196 186 192 193 196 190 207 208 217
252 253 234 250 256 247 254 297 309 135 135 185 118 105 84 343 354 359 22 345 176 169 164 160 159 162 164 163 162 160 158 156 154 153 157 162 168 174 179 182 184 186 186 182 184 188 207 204 210